STARLINK-34094, 63822

Orbit data source: Space-Track

STARLINK-34094, 63822 is a payload satellite owned by SpaceX/Seattle (US) in LEO that was launched on Sun, 04 May 2025 UTC via an FALCON 9 launch vehicle from the Air Force Eastern Test Range (AFETR). Payload-class satellites include a variety of spacecraft equipped with specific instruments for various scientific and technological missions. These include communications satellites like Starlink; space stations such as the ISS; scientific satellites like the Hubble; Earth observation satellites from companies like Planet Labs, Umbra, and HawkEye 360; GPS; miniature CubeSats for education and research; and military/defense satellites.

Loading next visibility...
Identifier
63822, 2025-092U
Orbit
LEO
Country
Flag of USUS
Related business
Manufacturer
SpaceX/Seattle
Mission
Operational Commercial Communications
Bus & Motor
STARLINK V2MO, Unknown motor
Mass
575 kg wet, ~530 kg dry
Launch date (UTC)
2025-05-04 (1 year ago)
Launch vehicle
FALCON 9
Launch site
Air Force Eastern Test Range (AFETR)
Object type
Payload
Rocket body
Debris
Shape & HBR
Box + 2 Pan, 17.7 m
Radar Cross Section
36.964 m², Large (>1 m²)

Expand to show TLE details & history
Last TLE update: 10 hours ago

TLE from 10 hours ago
0 STARLINK-34094
1 63822U 25092U   26126.70177867  .00015923  00000-0  58715-3 0  9998
2 63822  42.9967 201.7078 0001596 273.0928  86.9741 15.27566301 57572
Epoch: 2026-05-06T16:50Z
TLE epoch observation values (Epoch: 2026-05-06T16:50:33.677Z)
Latitude
Longitude
84.509°
Altitude
482.808 km
Speed
7.626 km/s
True Right ascension
13h 26m 49s
True Declination
0° 00' 00"
Sunlit
Object was in full shadow at epoch
Visualization orbit readout
Latitude
Unknown
Longitude
Unknown
Altitude
Unknown
Speed
Unknown
Apparent Right ascension
Unknown
Apparent Declination
Unknown
Sunlit
N/A
Visualization observer readout
Local Sidereal Time
10:55:48
Azimuth
Unknown
Elevation
Unknown
Doppler factor
Unknown
Orbital elements
Apogee altitude
486.131 km
Perigee altitude
483.94 km
Semi-major axis
6,863.173 km
Eccentricity
0.00016
Inclination
42.9967°
RAAN
201.7078°
Arg. of periapsis
273.0928°
True anomaly
86.99236°
Mean anomaly
86.9741°
Eccentric anomaly
86.98323°
Mean motion
3.8173 °/min
Orbital period
94.31 mins
BSTAR
0.00058715
Loading maneuver chart data...
Computing Atmospheric mass density...
Loading historical data...
Loading historical data...
Loading historical data...
Loading historical data...
Loading historical data...
Loading historical data...
Loading historical data...

Documentation

Showing up to 5 results
|